Tracking 30995 objects as of 7-Jul-2025
HD Live streaming from Space Station
objects crossing your sky now

GORIZONT 30

Track GORIZONT 30 now!
GORIZONT 30 is classified as:


NORAD ID: 23108
Int'l Code: 1994-030A
Perigee: 35,780.6 km
Apogee: 35,813.9 km
Inclination: 14.2 °
Period: 1,436.3 minutes
Semi major axis: 42168 km
RCS: 12.5892 m2 (large)
Launch date: May 20, 1994
Source: Commonwealth of Independent States (former USSR) (CIS)
Launch site: TYURATAM MISSILE AND SPACE COMPLEX (TTMTR)
Your satellite tracking list
IRIDIUM 149
Track 1 satellite(s)




NASA's NSSDC Master Catalog

Two Line Element Set (TLE):
1 23108U 94030A   25186.70426096 -.00000151  00000-0  00000-0 0  9994
2 23108  14.2018 350.7663 0003940 252.7068 277.1710  1.00259240113988
Source of the keplerian elements: AFSPC